Location: Kershaw
(34.5481°N, 80.5823°W)
Time: 13:46:07
(UTC+00:00)

Explorer 7 - Pass Details

Date: 11 October 2022
Orbit: 481 x 665 km, 50.3° (Epoch: 26 November)

Event Time Altitude Azimuth Distance (km) Brightness Sun altitude
Rises 18:16:58 0° 316° (NW) 2,991 10.4 45.2°
Reaches altitude 10° 18:19:34 10° 326° (NW) 2,062 9.6 45.0°
Maximum altitude 18:23:51 32° 30° (NNE) 1,086 8.2 44.6°
Drops below altitude 10° 18:27:58 10° 95° (E) 1,976 9.6 44.3°
Sets 18:30:24 0° 105° (ESE) 2,846 10.4 44.0°
